Location: Peterborough
(44.3091°N, 78.3197°W)
Time: 15:43:06
(UTC-04:00)

Transit 4A - Pass Details

Date: 24 March 2023
Orbit: 864 x 980 km, 66.8° (Epoch: 04 June)

Event Time Altitude Azimuth Distance (km) Brightness Sun altitude
Rises 08:38:01 0° 231° (SW) 3,434 10.5 14.9°
Reaches altitude 10° 08:40:35 10° 237° (WSW) 2,505 9.8 15.4°
Maximum altitude 08:46:06 45° 310° (NW) 1,181 8.3 16.3°
Drops below altitude 10° 08:51:45 10° 22° (NNE) 2,565 10.4 17.3°
Sets 08:54:25 0° 29° (NNE) 3,525 11.1 17.8°
